DELTA 2 RB1 37217U 10060B 10347.90720337 .02076336 28215-5 49695-3 0 11932 37217 098.2826 177.2438 0095961 135.4626 226.2295 16.18071476 5954
DELTA 2 RB1 37217U 10060B 10337.08677476 .00966458 26890-5 60829-3 0 8252 37217 098.2993 163.8374 0205338 179.8832 180.2682 15.86090890 4224
DELTA 2 RB1 37217U 10060B 10330.18233638 .00712020 27076-5 56899-3 0 6172 37217 098.3085 155.5185 0249108 204.8797 154.0298 15.74082634 3132